Hourly Weather Roundup
Issued by NWS Central Illinois

Home | Current Version | Previous Version | Text Only | Print | Product List | Glossary On
Versions: 1 2 3 4 5 6 7 8 9 10 11 12 13 14 15 16 17 18 19 20 21 22 23 24 25 26 27 28 29 30 31 32 33 34 35 36 37 38 39 40 41 42 43 44 45 46 47 48 49 50
000
NZUS43 KILX 230910
HWRILX

AREA WEATHER ROUNDUP
NATIONAL WEATHER SERVICE, LINCOLN IL
400 AM CDT SAT JUL 23 2016


CITY           SKY/WX    TMP DP  RH WIND       PRES   REMARKS
BLOOMINGTON    CLEAR     74  72  93 CALM      30.01F
CHAMPAIGN      CLEAR     72  70  93 CALM      30.01S
DANVILLE       FOG       71  71  99 CALM      29.98S VSB 3/4
DECATUR        CLEAR     73  71  93 CALM      29.99F
EFFINGHAM      PTCLDY    71  71 100 CALM      30.01S
FLORA          MOCLDY    72  71  97 CALM      30.00F FOG
GALESBURG      CLEAR     74  73  98 SE3       29.99S
JACKSONVILLE   CLEAR     74  73  93 CALM      29.98S
LACON          CLEAR     74  73  96 CALM      29.98F
LAWRENCEVILLE  MOCLDY    73  73 100 CALM      30.01R FOG
LITCHFIELD     FOG       71  69  94 CALM      30.00S VSB 1/2
$$


CITY           SKY/WX    TMP DP  RH WIND       PRES   REMARKS
LINCOLN        CLEAR     73  73  98 CALM      29.99S
MACOMB         FOG       72  71  99 CALM      30.00S VSB 1/2
MATTOON        PTCLDY    72  70  93 CALM      29.99F
MT CARMEL AP   FOG       71  70  97 CALM      30.00S VSB 1/4
OLNEY-NOBLE AP PTCLDY    70  70 100 CALM      30.00F FOG
PARIS          CLEAR     68  68 100 CALM      30.01F FOG
PEORIA         CLEAR     76  75  97 S3        29.99S
PONTIAC        CLEAR     74  74 100 CALM      30.00F
RANTOUL        NOT AVBL
ROBINSON       FOG       70  70 100 CALM      30.02R VSB 1/4
SPRINGFIELD    CLEAR     75  73  93 S3        29.99F
TAYLORVILLE    CLEAR     72  72  99 CALM      30.00S
$$

...REGIONAL REPORTS...


CITY           SKY/WX    TMP DP  RH WIND       PRES   REMARKS
CHICAGO O`HARE PTCLDY    79  75  87 W3        29.98S HX  83
KANKAKEE       NOT AVBL
MOLINE         CLEAR     76  74  93 CALM      29.98R
MOUNT STERLING CLEAR     73  73  99 CALM      29.99R
MOUNT VERNON   CLEAR     70  64  83 CALM      30.01S
PITTSFIELD     CLEAR     74  74 100 CALM      30.00S
QUINCY         CLEAR     75  73  93 S5        29.98S
ROCKFORD       CLEAR     75  73  93 SE3       29.99F
$$


CITY           SKY/WX    TMP DP  RH WIND       PRES   REMARKS
BURLINGTON     CLEAR     75  75 100 SW6       29.97S
CEDAR RAPIDS   CLEAR     76  76 100 E5        29.96F
DES MOINES     PTCLDY    80  76  87 S12       29.90F HX  86
KIRKSVILLE     CLOUDY    77  75  93 SW3       29.99S
OTTUMWA        CLOUDY    77  74  90 S6        29.95F
ST LOUIS       PTCLDY    78  72  81 CALM      29.99F HX  80
$$


CITY           SKY/WX    TMP DP  RH WIND       PRES   REMARKS
TERRE HAUTE    FOG       72  70  93 CALM      30.01S VSB 1/4
EVANSVILLE     PTCLDY    75  74  96 CALM      30.00S FOG
INDIANAPOLIS   PTCLDY    74  71  91 CALM      30.02S
LAFAYETTE      FOG       70  70 100 CALM      30.00S VSB 1/2
MADISON        FOG       75  73  93 CALM      29.98S VSB 1/4
MILWAUKEE      PTCLDY    76  72  87 CALM      29.97F
$$






USA.gov is the U.S. government's official web portal to all federal, state and local government web resources and services.